TimeCDT,TemperatureF,Dew PointF,Humidity,Sea Level PressureIn,VisibilityMPH,Wind Direction,Wind SpeedMPH,Gust SpeedMPH,PrecipitationIn,Events,Conditions,WindDirDegrees,DateUTC
12:15 AM,32.0,28.4,87,29.82,10.0,Calm,Calm,-,N/A,,Clear,0,2012-10-21 05:15:00
12:35 AM,33.8,28.4,81,29.83,10.0,Calm,Calm,-,N/A,,Clear,0,2012-10-21 05:35:00
12:55 AM,33.8,30.2,87,29.83,10.0,Calm,Calm,-,N/A,,Clear,0,2012-10-21 05:55:00
1:15 AM,33.8,28.4,81,29.84,10.0,Calm,Calm,-,N/A,,Clear,0,2012-10-21 06:15:00
1:35 AM,32.0,28.4,87,29.85,9.0,Calm,Calm,-,N/A,,Clear,0,2012-10-21 06:35:00
1:55 AM,33.8,28.4,81,29.85,10.0,Calm,Calm,-,N/A,,Clear,0,2012-10-21 06:55:00
2:15 AM,33.8,28.4,81,29.85,10.0,Calm,Calm,-,N/A,,Clear,0,2012-10-21 07:15:00
2:35 AM,33.8,30.2,87,29.85,10.0,Calm,Calm,-,N/A,,Clear,0,2012-10-21 07:35:00
2:55 AM,33.8,30.2,87,29.85,2.0,Calm,Calm,-,N/A,,Clear,0,2012-10-21 07:55:00
3:15 AM,33.8,30.2,87,29.85,8.0,Calm,Calm,-,N/A,,Clear,0,2012-10-21 08:15:00
3:35 AM,32.0,28.4,87,29.85,9.0,Calm,Calm,-,N/A,,Clear,0,2012-10-21 08:35:00
3:55 AM,30.2,28.4,93,29.86,5.0,Calm,Calm,-,N/A,,Clear,0,2012-10-21 08:55:00
4:15 AM,30.2,26.6,86,29.87,10.0,Calm,Calm,-,N/A,,Clear,0,2012-10-21 09:15:00
4:35 AM,33.8,28.4,81,29.87,10.0,Calm,Calm,-,N/A,,Clear,0,2012-10-21 09:35:00
4:55 AM,35.6,30.2,81,29.87,10.0,SSE,3.5,-,N/A,,Clear,160,2012-10-21 09:55:00
5:15 AM,37.4,33.8,87,29.86,10.0,South,4.6,-,N/A,,Clear,170,2012-10-21 10:15:00
5:35 AM,39.2,33.8,81,29.87,10.0,South,3.5,-,N/A,,Clear,180,2012-10-21 10:35:00
5:55 AM,35.6,28.4,75,29.88,10.0,South,3.5,-,N/A,,Clear,180,2012-10-21 10:55:00
6:15 AM,33.8,30.2,87,29.88,10.0,South,3.5,-,N/A,,Clear,180,2012-10-21 11:15:00
6:35 AM,33.8,30.2,87,29.88,10.0,SSE,4.6,-,N/A,,Clear,160,2012-10-21 11:35:00
6:55 AM,33.8,28.4,81,29.89,10.0,Calm,Calm,-,N/A,,Clear,0,2012-10-21 11:55:00
7:15 AM,37.4,33.8,87,29.89,10.0,South,6.9,-,N/A,,Clear,190,2012-10-21 12:15:00
7:35 AM,30.2,26.6,86,29.89,7.0,Calm,Calm,-,N/A,,Clear,0,2012-10-21 12:35:00
7:55 AM,39.2,33.8,81,29.88,10.0,South,6.9,-,N/A,,Clear,170,2012-10-21 12:55:00
8:15 AM,41.0,35.6,81,29.89,10.0,South,4.6,-,N/A,,Clear,190,2012-10-21 13:15:00
8:35 AM,41.0,35.6,81,29.89,10.0,South,6.9,-,N/A,,Clear,170,2012-10-21 13:35:00
8:55 AM,42.8,35.6,76,29.90,10.0,South,5.8,-,N/A,,Clear,180,2012-10-21 13:55:00
9:15 AM,44.6,37.4,76,29.90,10.0,South,5.8,-,N/A,,Partly Cloudy,180,2012-10-21 14:15:00
9:35 AM,46.4,37.4,71,29.89,10.0,SSW,8.1,-,N/A,,Scattered Clouds,200,2012-10-21 14:35:00
9:55 AM,46.4,37.4,71,29.88,10.0,South,4.6,-,N/A,,Partly Cloudy,190,2012-10-21 14:55:00
10:15 AM,50.0,39.2,66,29.89,10.0,SSW,5.8,-,N/A,,Clear,200,2012-10-21 15:15:00
10:35 AM,51.8,39.2,62,29.90,10.0,SSW,9.2,-,N/A,,Clear,210,2012-10-21 15:35:00
10:55 AM,51.8,39.2,62,29.90,10.0,SSW,8.1,-,N/A,,Clear,200,2012-10-21 15:55:00
11:15 AM,51.8,39.2,62,29.88,10.0,South,6.9,-,N/A,,Partly Cloudy,180,2012-10-21 16:15:00
11:35 AM,53.6,39.2,58,29.90,10.0,South,8.1,-,N/A,,Partly Cloudy,180,2012-10-21 16:35:00
11:55 AM,53.6,39.2,58,29.89,10.0,South,9.2,-,N/A,,Clear,180,2012-10-21 16:55:00
12:15 PM,53.6,39.2,58,29.89,10.0,South,9.2,-,N/A,,Clear,190,2012-10-21 17:15:00
12:35 PM,55.4,41.0,58,29.89,10.0,SSW,9.2,-,N/A,,Clear,200,2012-10-21 17:35:00
12:55 PM,55.4,41.0,58,29.90,10.0,South,9.2,-,N/A,,Clear,170,2012-10-21 17:55:00
1:15 PM,55.4,39.2,54,29.88,10.0,South,4.6,-,N/A,,Clear,170,2012-10-21 18:15:00
1:35 PM,57.2,41.0,55,29.88,10.0,South,8.1,-,N/A,,Clear,190,2012-10-21 18:35:00
1:55 PM,57.2,39.2,51,29.87,10.0,South,12.7,16.1,N/A,,Clear,190,2012-10-21 18:55:00
2:15 PM,59.0,39.2,48,29.86,10.0,SSE,8.1,-,N/A,,Clear,160,2012-10-21 19:15:00
2:35 PM,59.0,41.0,51,29.86,10.0,SSE,10.4,-,N/A,,Clear,150,2012-10-21 19:35:00
2:55 PM,60.8,39.2,45,29.85,10.0,South,10.4,-,N/A,,Clear,170,2012-10-21 19:55:00
3:15 PM,59.0,39.2,48,29.84,10.0,SSE,9.2,-,N/A,,Clear,150,2012-10-21 20:15:00
3:35 PM,59.0,41.0,51,29.85,10.0,SSE,6.9,-,N/A,,Clear,150,2012-10-21 20:35:00
3:55 PM,60.8,39.2,45,29.85,10.0,SE,9.2,-,N/A,,Clear,140,2012-10-21 20:55:00
4:15 PM,60.8,39.2,45,29.85,10.0,SSE,8.1,-,N/A,,Clear,150,2012-10-21 21:15:00
4:35 PM,60.8,39.2,45,29.85,10.0,South,11.5,-,N/A,,Clear,170,2012-10-21 21:35:00
4:55 PM,60.8,39.2,45,29.85,10.0,South,6.9,-,N/A,,Clear,170,2012-10-21 21:55:00
5:15 PM,60.8,39.2,45,29.85,10.0,SSE,6.9,-,N/A,,Clear,150,2012-10-21 22:15:00
5:35 PM,59.0,39.2,48,29.85,10.0,SSE,5.8,-,N/A,,Clear,150,2012-10-21 22:35:00
5:55 PM,57.2,39.2,51,29.86,10.0,SSE,6.9,-,N/A,,Partly Cloudy,150,2012-10-21 22:55:00
6:15 PM,57.2,39.2,51,29.86,10.0,SSE,4.6,-,N/A,,Partly Cloudy,150,2012-10-21 23:15:00
6:35 PM,57.2,39.2,51,29.86,10.0,SE,4.6,-,N/A,,Clear,130,2012-10-21 23:35:00
6:55 PM,57.2,39.2,51,29.86,10.0,SSE,4.6,-,N/A,,Scattered Clouds,150,2012-10-21 23:55:00
7:15 PM,57.2,39.2,51,29.86,10.0,SSE,4.6,-,N/A,,Partly Cloudy,160,2012-10-22 00:15:00
7:35 PM,57.2,39.2,51,29.88,10.0,South,5.8,-,N/A,,Partly Cloudy,190,2012-10-22 00:35:00
7:55 PM,57.2,39.2,51,29.88,10.0,South,4.6,-,N/A,,Mostly Cloudy,190,2012-10-22 00:55:00
8:15 PM,57.2,39.2,51,29.89,10.0,SW,5.8,-,N/A,,Overcast,220,2012-10-22 01:15:00
8:35 PM,57.2,39.2,51,29.90,10.0,SSW,5.8,-,N/A,,Mostly Cloudy,200,2012-10-22 01:35:00
8:55 PM,55.4,39.2,54,29.90,10.0,SSW,6.9,-,N/A,,Partly Cloudy,210,2012-10-22 01:55:00
9:15 PM,55.4,39.2,54,29.90,10.0,SSW,9.2,-,N/A,,Mostly Cloudy,200,2012-10-22 02:15:00
9:35 PM,55.4,39.2,54,29.91,10.0,South,6.9,-,N/A,,Overcast,190,2012-10-22 02:35:00
9:55 PM,55.4,39.2,54,29.92,10.0,SSW,5.8,-,N/A,,Mostly Cloudy,200,2012-10-22 02:55:00
10:15 PM,55.4,39.2,54,29.92,10.0,SSW,3.5,-,N/A,,Clear,200,2012-10-22 03:15:00
10:35 PM,53.6,39.2,58,29.92,10.0,South,4.6,-,N/A,,Clear,180,2012-10-22 03:35:00
10:55 PM,53.6,39.2,58,29.92,10.0,Calm,Calm,-,N/A,,Clear,0,2012-10-22 03:55:00
11:15 PM,53.6,39.2,58,29.93,10.0,Calm,Calm,-,N/A,,Mostly Cloudy,0,2012-10-22 04:15:00
11:35 PM,51.8,39.2,62,29.93,10.0,Calm,Calm,-,N/A,,Scattered Clouds,0,2012-10-22 04:35:00
11:55 PM,50.0,39.2,66,29.93,10.0,Calm,Calm,-,N/A,,Partly Cloudy,0,2012-10-22 04:55:00